sat.trackr.live / text

‹ back to catalog

STARLINK-36127

NORAD 66935 · 2025-286L

PAYLOAD ACTIVE UNKNOWN

§ Identity

Operator
Country
US
Launch date
2025-12-07
Launch site
AFWTR
Launch vehicle
Mass (kg)
RCS (m²)

Purposes: comms

External: N2YO · Heavens-Above · Gunter

§ Orbital elements

Epoch: 2026-09-20T03:05:12.624576Z

Period
93.85 min
Inclination
53.1590°
Eccentricity
0.0001470
Mean motion
15.34400455 rev/d
Perigee alt
461.7 km
Apogee alt
463.7 km
Semi-major
6,840.8 km
B*
6.0363e-4
RAAN
171.2294°
Arg perigee
86.3737°
Mean anomaly
273.7433°
Rev number
4,524

§ Raw data

STARLINK-361271 66935U 25286L   26263.12861834  .00020073  00000+0  60363-3 0  99962 66935  53.1590 171.2294 0001470  86.3737 273.7433 15.34400455 45241

JSON: /api/v1/satellites/66935 · /tle

For live sub-satellite position, see the globe view (requires WebGL).

§ Visibility from observer

Set your observer location to see the next 7 days of passes ≥ 10°. The values pass through the URL so the page stays shareable.

No JS? Fill the form by hand. The geolocation button needs JavaScript.